Location: Downe
(51.3167°N, 0.0500°E)
Time: 21:56:49
(UTC+00:00)

COSMOS 2455 - Pass Details

Date: 17 November 2019
Orbit: 902 x 908 km, 67.1° (Epoch: 08 December)

Event Time Altitude Azimuth Distance (km) Brightness Sun altitude
Exits shadow 04:40:31 45° 321° (NW) 1,230 3.2 -24.6°
Maximum altitude 04:42:33 87° 237° (WSW) 916 2.7 -24.3°
Drops below altitude 10° 04:48:34 10° 146° (SSE) 2,584 5.6 -23.3°
Sets 04:51:03 0° 147° (SSE) 3,521 6.4 -23.0°
